Tracking 33873 objects as of 21-Apr-2026
HD Live streaming from Space Station
objects crossing your sky now

NOAA 16 DEB

Track NOAA 16 DEB now!
10-day predictions


NORAD ID: 41058
Int'l Code: 2000-055R
Perigee: 840.6 km
Apogee: 872.7 km
Inclination: 98.6 °
Period: 101.9 minutes
Semi major axis: 7227 km
RCS: Unknown
Launch date: September 21, 2000
Source: United States (US)
Launch site: AIR FORCE WESTERN TEST RANGE (AFWTR)

Note: This is SATELLITE DEBRIS
Your satellite tracking list
Your tracking list is empty




NASA's NSSDC Master Catalog

Two Line Element Set (TLE):
1 41058U 00055R   26110.95535255  .00000671  00000-0  38243-3 0  9994
2 41058  98.5921 110.5769 0022147 312.4207  47.5092 14.12885922534852
Source of the keplerian elements: AFSPC